Weather History for Salida, CO

Change the Weather History Date:

Saturday, August 24, 2013

  Actual Average (KGUC) Record (KGUC)
Temperature  
Mean Temperature 69 °F -  
Max Temperature 79 °F 73 °F 82 °F (2008)
Min Temperature 59 °F 41 °F 35 °F (2001)
Cooling Degree Days 4    
Growing Degree Days 19 (Base 50)    
Moisture  
Dew Point 44 °F    
Average Humidity 41    
Maximum Humidity 61    
Minimum Humidity 26    
Precipitation  
Precipitation 0.00 in - - ()
Sea Level Pressure  
Sea Level Pressure 30.36 in    
Wind  
Wind Speed 8 mph (SW)    
Max Wind Speed 20 mph    
Max Gust Speed 24 mph    
Visibility 10 miles    
Events      
Averages and records for this station are not official NWS values.
T = Trace of Precipitation, MM = Missing Value Source: NWS Daily Summary

Daily Weather History Graph

Daily Weather History Graph

Search for Another Location

Airport:

Trip Planner

Search our weather history database for the weather conditions in past years. The results will help you decide how hot, cold, wet, or windy it might be!

Date:

Astronomy

Aug. 24, 2013 Rise Set
Actual Time 6:26 AM MDT 7:45 PM MDT
Civil Twilight 5:59 AM MDT 8:13 PM MDT
Nautical Twilight 5:25 AM MDT 8:46 PM MDT
Astronomical Twilight 4:51 AM MDT 9:20 PM MDT
Moon 9:45 PM MDT (8/24) 10:25 AM MDT (8/24)
Length of Visible Light 14h 14m
Length of Day
13h 18m
Waning Gibbous, 84% of the Moon is Illuminated
Aug 24
Waning Gibbous
Aug 28
Last Quarter
Sep 5
New
Sep 12
First Quarter
Sep 19
Full

Hourly Weather History & Observations

Time (MDT) Temp. Dew Point Humidity Pressure Visibility Wind Dir Wind Speed Gust Speed Precip Events Conditions
12:15 AM 66.0 °F 43.0 °F 43% 30.31 in 10.0 mi West 5.8 mph - N/A   Clear
12:35 AM 64.8 °F 43.0 °F 45% 30.32 in 10.0 mi SSW 5.8 mph - N/A   Clear
12:55 AM 62.2 °F 44.6 °F 52% 30.33 in 10.0 mi North 9.2 mph - N/A   Clear
1:15 AM 59.4 °F 45.7 °F 61% 30.33 in 10.0 mi SE 5.8 mph - N/A   Clear
1:35 AM 62.1 °F 44.6 °F 53% 30.33 in 10.0 mi WSW 5.8 mph - N/A   Clear
1:55 AM 61.9 °F 45.5 °F 55% 30.33 in 10.0 mi North 4.6 mph - N/A   Clear
2:15 AM 62.8 °F 44.8 °F 52% 30.33 in 10.0 mi NE 5.8 mph - N/A   Clear
2:35 AM 64.6 °F 43.9 °F 47% 30.33 in 10.0 mi West 4.6 mph - N/A   Clear
2:55 AM 59.7 °F 45.5 °F 59% 30.33 in 10.0 mi Calm Calm - N/A   Clear
3:15 AM 66.0 °F 43.7 °F 44% 30.34 in 10.0 mi South 10.4 mph 16.1 mph N/A   Scattered Clouds
3:35 AM 65.8 °F 44.6 °F 46% 30.34 in 10.0 mi WSW 5.8 mph 16.1 mph N/A   Scattered Clouds
3:55 AM 66.2 °F 42.4 °F 42% 30.34 in 10.0 mi WSW 10.4 mph - N/A   Clear
4:15 AM 66.0 °F 43.7 °F 44% 30.35 in 10.0 mi SW 6.9 mph 19.6 mph N/A   Clear
4:35 AM 64.9 °F 44.8 °F 48% 30.35 in 10.0 mi SW 4.6 mph - N/A   Scattered Clouds
4:55 AM 65.1 °F 44.4 °F 47% 30.35 in 10.0 mi Calm Calm - N/A   Scattered Clouds
5:15 AM 63.9 °F 44.8 °F 50% 30.37 in 10.0 mi SW 6.9 mph - N/A   Scattered Clouds
5:35 AM 64.4 °F 43.9 °F 47% 30.36 in 10.0 mi SSW 8.1 mph - N/A   Clear
5:55 AM 63.5 °F 44.4 °F 50% 30.36 in 10.0 mi West 4.6 mph - N/A   Clear
6:15 AM 62.4 °F 45.0 °F 53% 30.35 in 10.0 mi WNW 3.5 mph - N/A   Clear
6:35 AM 63.5 °F 45.9 °F 53% 30.37 in 10.0 mi WSW 6.9 mph - N/A   Clear
6:55 AM 64.2 °F 46.4 °F 52% 30.37 in 10.0 mi South 10.4 mph - N/A   Clear
7:15 AM 64.8 °F 46.8 °F 52% 30.38 in 10.0 mi ESE 3.5 mph 17.3 mph N/A   Scattered Clouds
7:35 AM 64.4 °F 46.8 °F 53% 30.38 in 10.0 mi South 10.4 mph 16.1 mph N/A   Scattered Clouds
7:55 AM 66.0 °F 46.0 °F 48% 30.39 in 10.0 mi SSW 12.7 mph 19.6 mph N/A   Scattered Clouds
8:15 AM 64.4 °F 46.4 °F 52% 30.39 in 10.0 mi South 16.1 mph 23.0 mph N/A   Clear
8:35 AM 64.6 °F 46.4 °F 52% 30.39 in 10.0 mi SSW 10.4 mph 18.4 mph N/A   Clear
8:55 AM 67.8 °F 46.4 °F 46% 30.38 in 10.0 mi SSW 9.2 mph - N/A   Clear
9:15 AM 68.9 °F 46.6 °F 45% 30.39 in 10.0 mi South 8.1 mph - N/A   Clear
9:35 AM 69.1 °F 46.4 °F 44% 30.38 in 10.0 mi South 6.9 mph 17.3 mph N/A   Clear
9:55 AM 70.7 °F 46.4 °F 42% 30.38 in 10.0 mi South 8.1 mph 17.3 mph N/A   Clear
10:15 AM 72.0 °F 46.0 °F 40% 30.39 in 10.0 mi South 13.8 mph 24.2 mph N/A   Clear
10:35 AM 72.7 °F 46.0 °F 39% 30.39 in 10.0 mi South 13.8 mph 20.7 mph N/A   Clear
10:55 AM 75.0 °F 45.0 °F 34% 30.39 in 10.0 mi South 13.8 mph 18.4 mph N/A   Scattered Clouds
11:15 AM 75.6 °F 45.1 °F 34% 30.39 in 10.0 mi South 9.2 mph 16.1 mph N/A   Scattered Clouds
11:35 AM 76.3 °F 43.5 °F 31% 30.38 in 10.0 mi South 12.7 mph 21.9 mph N/A   Clear
11:55 AM 77.9 °F 42.8 °F 29% 30.38 in 10.0 mi South 9.2 mph 18.4 mph N/A   Mostly Cloudy
12:15 PM 79.2 °F 43.2 °F 28% 30.37 in 10.0 mi SSW 11.5 mph 18.4 mph N/A   Mostly Cloudy
12:35 PM 79.7 °F 42.3 °F 26% 30.37 in 10.0 mi WSW 11.5 mph 19.6 mph N/A   Mostly Cloudy
12:55 PM 78.4 °F 40.3 °F 26% 30.37 in 10.0 mi WSW 11.5 mph 16.1 mph N/A   Mostly Cloudy
1:15 PM 77.4 °F 40.6 °F 27% 30.36 in 10.0 mi WSW 10.4 mph - N/A   Scattered Clouds
1:35 PM 76.3 °F 40.3 °F 27% 30.36 in 10.0 mi SSW 9.2 mph - N/A   Mostly Cloudy
1:55 PM 77.0 °F 42.3 °F 29% 30.35 in 10.0 mi SE 12.7 mph 17.3 mph N/A   Scattered Clouds
2:15 PM 76.5 °F 46.0 °F 34% 30.35 in 10.0 mi ESE 6.9 mph - N/A   Mostly Cloudy
2:35 PM 77.7 °F 43.5 °F 30% 30.34 in 10.0 mi ESE 13.8 mph 19.6 mph N/A   Mostly Cloudy
2:55 PM 76.6 °F 42.1 °F 29% 30.34 in 10.0 mi East 8.1 mph - N/A   Scattered Clouds
3:15 PM 76.6 °F 43.0 °F 30% 30.33 in 10.0 mi ESE 8.1 mph - N/A   Mostly Cloudy
3:35 PM 76.6 °F 42.4 °F 29% 30.33 in 10.0 mi South 13.8 mph 19.6 mph N/A   Mostly Cloudy
3:55 PM 76.6 °F 41.5 °F 28% 30.33 in 10.0 mi South 9.2 mph 17.3 mph N/A   Mostly Cloudy
4:15 PM 75.6 °F 41.9 °F 30% 30.33 in 10.0 mi SSW 11.5 mph 17.3 mph N/A   Overcast
4:35 PM 75.0 °F 41.7 °F 30% 30.33 in 10.0 mi SSW 13.8 mph 23.0 mph N/A   Overcast
4:55 PM 74.5 °F 42.6 °F 32% 30.33 in 10.0 mi SW 11.5 mph 18.4 mph N/A   Overcast
5:15 PM 73.9 °F 43.5 °F 34% 30.34 in 10.0 mi WSW 11.5 mph - N/A   Overcast
5:35 PM 72.5 °F 42.6 °F 34% 30.34 in 10.0 mi West 19.6 mph 24.2 mph N/A   Overcast
5:55 PM 72.5 °F 43.2 °F 35% 30.33 in 10.0 mi West 15.0 mph 21.9 mph N/A   Mostly Cloudy
6:15 PM 72.0 °F 43.0 °F 35% 30.33 in 10.0 mi West 17.3 mph 21.9 mph N/A   Mostly Cloudy
6:35 PM 71.6 °F 43.5 °F 36% 30.34 in 10.0 mi SW 5.8 mph - N/A   Mostly Cloudy
6:55 PM 72.0 °F 43.9 °F 36% 30.33 in 10.0 mi WSW 4.6 mph - N/A   Overcast
7:15 PM 72.0 °F 43.9 °F 36% 30.34 in 10.0 mi SW 6.9 mph - N/A   Overcast
7:35 PM 70.9 °F 45.0 °F 39% 30.35 in 10.0 mi Calm Calm - N/A   Mostly Cloudy
7:55 PM 70.7 °F 45.3 °F 40% 30.35 in 10.0 mi Calm Calm - N/A   Overcast
8:15 PM 69.3 °F 46.4 °F 44% 30.35 in 10.0 mi Calm Calm - N/A   Overcast
8:35 PM 69.3 °F 45.5 °F 42% 30.37 in 10.0 mi WSW 6.9 mph - N/A   Overcast
8:55 PM 69.1 °F 46.0 °F 44% 30.37 in 10.0 mi SW 8.1 mph - N/A   Mostly Cloudy
9:15 PM 69.1 °F 45.5 °F 43% 30.39 in 10.0 mi SW 8.1 mph - N/A   Mostly Cloudy
9:55 PM 68.9 °F 45.1 °F 42% 30.40 in 10.0 mi SW 9.2 mph - N/A   Mostly Cloudy
10:15 PM 67.3 °F 46.0 °F 46% 30.41 in 10.0 mi WSW 6.9 mph - N/A   Overcast
10:35 PM 66.7 °F 46.0 °F 47% 30.41 in 10.0 mi WNW 5.8 mph - N/A   Overcast
10:55 PM 67.1 °F 45.7 °F 46% 30.42 in 10.0 mi Calm Calm - N/A   Overcast
11:15 PM 67.1 °F 45.5 °F 46% 30.42 in 10.0 mi WSW 8.1 mph - N/A   Overcast
11:35 PM 67.1 °F 45.9 °F 46% 30.43 in 10.0 mi WSW 8.1 mph - N/A   Overcast
11:55 PM 67.8 °F 45.9 °F 45% 30.42 in 10.0 mi WSW 10.4 mph - N/A   Overcast